Simultaneous Nadir Overpasses (SNOs) Predictions

Prediction of SNOs near US between AQUA and NPP Satellite Orbit:

Table of predicted SNOs near US for the next 10.0 days since TLE Epoch: 12/20/2019
Index Date (AQUA) Time (AQUA) AQUA Lat,Lon Date (NPP) Time (NPP) NPP Lat,Lon Distance(km) Time Diff (sec)
1 12/21/2019 19:06:13 50.00, -92.55 12/21/2019 19:00:58 49.69, -94.39 136.23 315
2 12/21/2019 20:45:06 49.99,-117.27 12/21/2019 20:42:26 49.59,-119.72 181.50 160
3 12/24/2019 10:11:57 26.70,-124.99 12/24/2019 10:05:28 26.05,-125.88 114.44 389
4 12/27/2019 07:18:37 49.93, -75.96 12/27/2019 07:19:53 50.34, -78.16 163.05 76
5 12/27/2019 08:57:30 49.94,-100.68 12/27/2019 09:01:20 50.50,-103.46 207.46 230
6 12/29/2019 18:16:47 49.96, -80.17 12/29/2019 18:10:08 49.69, -81.69 112.79 399
7 12/29/2019 19:55:40 49.95,-104.89 12/29/2019 19:51:36 49.59,-107.02 158.04 244
8 12/29/2019 21:30:51 36.72,-125.00 12/29/2019 21:29:15 36.21,-127.52 232.64 96




NCC Satellite Simultaneous Nadir Overpasses (SNOs) Prediction Service
